Year,Month,Day,Hour,Minute,Value (Times are PST for temperature in C)
2012,07,23,00,02,12.70
2012,07,23,00,03,12.70
2012,07,23,00,04,12.70
2012,07,23,00,05,12.70
2012,07,23,00,06,12.70
2012,07,23,00,07,12.70
2012,07,23,00,08,12.70
2012,07,23,00,09,12.80
2012,07,23,00,11,12.80
2012,07,23,00,12,12.70
2012,07,23,00,13,12.70
2012,07,23,00,14,12.70
2012,07,23,00,16,12.70
2012,07,23,00,17,12.70
2012,07,23,00,18,12.70
2012,07,23,00,19,12.70
2012,07,23,00,21,12.70
2012,07,23,00,22,12.70
2012,07,23,00,23,12.70
2012,07,23,00,24,12.70
2012,07,23,00,26,12.70
2012,07,23,00,27,12.70
2012,07,23,00,28,12.70
2012,07,23,00,29,12.70
2012,07,23,00,31,12.70
2012,07,23,00,32,12.70
2012,07,23,00,33,12.70
2012,07,23,00,34,12.70
2012,07,23,00,35,12.70
2012,07,23,00,36,12.70
2012,07,23,00,37,12.70
2012,07,23,00,38,12.70
2012,07,23,00,39,12.70
2012,07,23,00,41,12.70
2012,07,23,00,42,12.70
2012,07,23,00,43,12.70
2012,07,23,00,44,12.70
2012,07,23,00,46,12.70
2012,07,23,00,47,12.70
2012,07,23,00,48,12.70
2012,07,23,00,49,12.70
2012,07,23,00,50,12.70
2012,07,23,00,51,12.70
2012,07,23,00,52,12.70
2012,07,23,00,53,12.70
2012,07,23,00,54,12.70
2012,07,23,00,55,12.70
2012,07,23,00,56,12.70
2012,07,23,00,57,12.70
2012,07,23,00,58,12.70
2012,07,23,00,59,12.70
2012,07,23,01,00,12.70
2012,07,23,01,01,12.70
2012,07,23,01,02,12.70
2012,07,23,01,04,12.70
2012,07,23,01,05,12.70
2012,07,23,01,06,12.70
2012,07,23,01,07,12.70
2012,07,23,01,08,12.70
2012,07,23,01,09,12.70
2012,07,23,01,10,12.70
2012,07,23,01,11,12.70
2012,07,23,01,12,12.70
2012,07,23,01,13,12.70
2012,07,23,01,14,12.70
2012,07,23,01,15,12.70
2012,07,23,01,16,12.70
2012,07,23,01,18,12.70
2012,07,23,01,19,12.70
2012,07,23,01,20,12.70
2012,07,23,01,21,12.70
2012,07,23,01,22,12.70
2012,07,23,01,23,12.70
2012,07,23,01,24,12.70
2012,07,23,01,25,12.80
2012,07,23,01,26,12.80
2012,07,23,01,27,12.80
2012,07,23,01,28,12.80
2012,07,23,01,29,12.80
2012,07,23,01,30,12.80
2012,07,23,01,32,12.80
2012,07,23,01,33,12.70
2012,07,23,01,34,12.70
2012,07,23,01,35,12.70
2012,07,23,01,36,12.70
2012,07,23,01,38,12.70
2012,07,23,01,39,12.70
2012,07,23,01,40,12.70
2012,07,23,01,41,12.70
2012,07,23,01,42,12.70
2012,07,23,01,44,12.70
2012,07,23,01,45,12.70
2012,07,23,01,46,12.70
2012,07,23,01,48,12.70
2012,07,23,01,49,12.70
2012,07,23,01,50,12.70
2012,07,23,01,52,12.70
2012,07,23,01,53,12.80
2012,07,23,01,54,12.80
2012,07,23,01,55,12.80
2012,07,23,01,57,12.80
2012,07,23,01,58,12.80
2012,07,23,01,59,12.80
2012,07,23,02,00,12.80
2012,07,23,02,01,12.80
2012,07,23,02,02,12.80
2012,07,23,02,03,12.80
2012,07,23,02,04,12.80
2012,07,23,02,05,12.80
2012,07,23,02,07,12.80
2012,07,23,02,08,12.80
2012,07,23,02,09,12.80
2012,07,23,02,10,12.80
2012,07,23,02,11,12.80
2012,07,23,02,12,12.80
2012,07,23,02,13,12.80
2012,07,23,02,14,12.80
2012,07,23,02,16,12.80
2012,07,23,02,17,12.80
2012,07,23,02,18,12.80
2012,07,23,02,20,12.80
2012,07,23,02,21,12.90
2012,07,23,02,22,12.90
2012,07,23,02,23,12.90
2012,07,23,02,24,12.90
2012,07,23,02,25,12.90
2012,07,23,02,26,12.90
2012,07,23,02,27,12.90
2012,07,23,02,28,12.90
2012,07,23,02,30,12.90
2012,07,23,02,31,12.90
2012,07,23,02,32,12.90
2012,07,23,02,33,12.90
2012,07,23,02,35,12.90
2012,07,23,02,36,12.90
2012,07,23,02,37,12.90
2012,07,23,02,38,12.90
2012,07,23,02,40,12.90
2012,07,23,02,41,12.90
2012,07,23,02,42,12.90
2012,07,23,02,44,12.90
2012,07,23,02,45,12.90
2012,07,23,02,46,13.00
2012,07,23,02,47,13.00
2012,07,23,02,49,13.00
2012,07,23,02,50,13.00
2012,07,23,02,51,13.00
2012,07,23,02,53,13.00
2012,07,23,02,54,13.00
2012,07,23,02,55,13.00
2012,07,23,02,56,13.00
2012,07,23,02,58,13.10
2012,07,23,02,59,13.10
2012,07,23,03,00,13.10
2012,07,23,03,01,13.10
2012,07,23,03,02,13.10
2012,07,23,03,04,13.10
2012,07,23,03,05,13.10
2012,07,23,03,06,13.10
2012,07,23,03,07,13.10
2012,07,23,03,09,13.10
2012,07,23,03,10,13.00
2012,07,23,03,11,13.00
2012,07,23,03,12,13.00
2012,07,23,03,14,13.00
2012,07,23,03,15,13.00
2012,07,23,03,16,13.00
2012,07,23,03,17,13.00
2012,07,23,03,19,13.00
2012,07,23,03,20,13.00
2012,07,23,03,21,13.00
2012,07,23,03,23,13.00
2012,07,23,03,24,13.00
2012,07,23,03,25,12.90
2012,07,23,03,26,12.90
2012,07,23,03,27,12.90
2012,07,23,03,28,13.00
2012,07,23,03,29,13.00
2012,07,23,03,30,13.00
2012,07,23,03,31,13.00
2012,07,23,03,33,13.00
2012,07,23,03,34,13.00
2012,07,23,03,35,13.00
2012,07,23,03,36,13.00
2012,07,23,03,38,13.00
2012,07,23,03,39,13.00
2012,07,23,03,40,13.00
2012,07,23,03,42,12.90
2012,07,23,03,43,12.90
2012,07,23,03,44,12.90
2012,07,23,03,45,12.90
2012,07,23,03,47,12.90
2012,07,23,03,48,12.90
2012,07,23,03,49,12.90
2012,07,23,03,50,12.90
2012,07,23,03,52,12.90
2012,07,23,03,53,12.90
2012,07,23,03,54,12.90
2012,07,23,03,56,12.80
2012,07,23,03,57,12.80
2012,07,23,03,58,12.80
2012,07,23,03,59,12.80
2012,07,23,04,00,12.80
2012,07,23,04,02,12.80
2012,07,23,04,03,12.80
2012,07,23,04,04,12.80
2012,07,23,04,06,12.70
2012,07,23,04,07,12.70
2012,07,23,04,08,12.70
2012,07,23,04,09,12.70
2012,07,23,04,11,12.70
2012,07,23,04,12,12.70
2012,07,23,04,13,12.70
2012,07,23,04,14,12.70
2012,07,23,04,15,12.70
2012,07,23,04,17,12.70
2012,07,23,04,18,12.70
2012,07,23,04,19,12.70
2012,07,23,04,20,12.70
2012,07,23,04,22,12.70
2012,07,23,04,23,12.70
2012,07,23,04,24,12.70
2012,07,23,04,25,12.70
2012,07,23,04,27,12.70
2012,07,23,04,28,12.80
2012,07,23,04,29,12.80
2012,07,23,04,30,12.70
2012,07,23,04,31,12.80
2012,07,23,04,32,12.70
2012,07,23,04,33,12.70
2012,07,23,04,34,12.70
2012,07,23,04,35,12.70
2012,07,23,04,36,12.70
2012,07,23,04,37,12.70
2012,07,23,04,38,12.70
2012,07,23,04,39,12.70
2012,07,23,04,40,12.70
2012,07,23,04,41,12.70
2012,07,23,04,42,12.70
2012,07,23,04,43,12.70
2012,07,23,04,44,12.70
2012,07,23,04,45,12.70
2012,07,23,04,46,12.70
2012,07,23,04,47,12.70
2012,07,23,04,48,12.70
2012,07,23,04,49,12.80
2012,07,23,04,50,12.80
2012,07,23,04,51,12.80
2012,07,23,04,52,12.80
2012,07,23,04,53,12.80
2012,07,23,04,54,12.80
2012,07,23,04,55,12.80
2012,07,23,04,56,12.80
2012,07,23,04,57,12.80
2012,07,23,04,58,12.80
2012,07,23,04,59,12.80
2012,07,23,05,00,12.80
2012,07,23,05,01,12.80
2012,07,23,05,02,12.80
2012,07,23,05,04,12.80
2012,07,23,05,05,12.80
2012,07,23,05,06,12.80
2012,07,23,05,07,12.80
2012,07,23,05,08,12.80
2012,07,23,05,09,12.80
2012,07,23,05,10,12.80
2012,07,23,05,11,12.80
2012,07,23,05,12,12.80
2012,07,23,05,13,12.80
2012,07,23,05,14,12.80
2012,07,23,05,15,12.70
2012,07,23,05,16,12.70
2012,07,23,05,17,12.70
2012,07,23,05,18,12.70
2012,07,23,05,19,12.70
2012,07,23,05,20,12.70
2012,07,23,05,21,12.70
2012,07,23,05,22,12.70
2012,07,23,05,23,12.70
2012,07,23,05,24,12.70
2012,07,23,05,25,12.70
2012,07,23,05,26,12.70
2012,07,23,05,28,12.70
2012,07,23,05,29,12.70
2012,07,23,05,30,12.80
2012,07,23,05,31,12.80
2012,07,23,05,33,12.80
2012,07,23,05,34,12.80
2012,07,23,05,35,12.80
2012,07,23,05,36,12.80
2012,07,23,05,38,12.80
2012,07,23,05,39,12.80
2012,07,23,05,40,12.80
2012,07,23,05,41,12.80
2012,07,23,05,42,12.80
2012,07,23,05,43,12.80
2012,07,23,05,44,12.80
2012,07,23,05,45,12.80
2012,07,23,05,46,12.80
2012,07,23,05,47,12.80
2012,07,23,05,49,12.80
2012,07,23,05,50,12.80
2012,07,23,05,51,12.80
2012,07,23,05,52,12.80
2012,07,23,05,53,12.80
2012,07,23,05,54,12.80
2012,07,23,05,55,12.80
2012,07,23,05,56,12.80
2012,07,23,05,58,12.80
2012,07,23,05,59,12.80
2012,07,23,06,00,12.80
2012,07,23,06,01,12.80
2012,07,23,06,03,12.80
2012,07,23,06,04,12.90
2012,07,23,06,05,12.90
2012,07,23,06,06,12.90
2012,07,23,06,08,12.90
2012,07,23,06,09,12.90
2012,07,23,06,10,12.90
2012,07,23,06,11,12.90
2012,07,23,06,13,12.90
2012,07,23,06,14,12.90
2012,07,23,06,15,12.90
2012,07,23,06,17,12.90
2012,07,23,06,18,12.90
2012,07,23,06,19,12.90
2012,07,23,06,20,12.90
2012,07,23,06,22,12.90
2012,07,23,06,23,12.90
2012,07,23,06,24,12.90
2012,07,23,06,25,12.90
2012,07,23,06,27,12.90
2012,07,23,06,28,12.90
2012,07,23,06,29,12.90
2012,07,23,06,30,12.80
2012,07,23,06,31,12.80
2012,07,23,06,32,12.90
2012,07,23,06,33,12.90
2012,07,23,06,34,12.90
2012,07,23,06,35,12.90
2012,07,23,06,37,12.80
2012,07,23,06,38,12.90
2012,07,23,06,39,12.90
2012,07,23,06,40,12.90
2012,07,23,06,41,12.90
2012,07,23,06,42,12.90
2012,07,23,06,43,12.90
2012,07,23,06,44,12.90
2012,07,23,06,45,12.90
2012,07,23,06,46,12.90
2012,07,23,06,47,12.90
2012,07,23,06,48,12.90
2012,07,23,06,49,12.90
2012,07,23,06,50,12.90
2012,07,23,06,51,12.90
2012,07,23,06,52,13.00
2012,07,23,06,53,13.00
2012,07,23,06,54,13.00
2012,07,23,06,55,13.00
2012,07,23,06,56,13.00
2012,07,23,06,57,13.00
2012,07,23,06,58,13.00
2012,07,23,06,59,13.00
2012,07,23,07,00,13.00
2012,07,23,07,01,13.00
2012,07,23,07,02,13.00
2012,07,23,07,03,12.90
2012,07,23,07,04,13.00
2012,07,23,07,05,13.00
2012,07,23,07,06,13.00
2012,07,23,07,07,13.00
2012,07,23,07,08,13.00
2012,07,23,07,09,13.00
2012,07,23,07,10,13.10
2012,07,23,07,11,13.10
2012,07,23,07,12,13.10
2012,07,23,07,13,13.20
2012,07,23,07,14,13.20
2012,07,23,07,15,13.20
2012,07,23,07,16,13.20
2012,07,23,07,17,13.20
2012,07,23,07,18,13.30
2012,07,23,07,19,13.30
2012,07,23,07,20,13.30
2012,07,23,07,21,13.30
2012,07,23,07,22,13.30
2012,07,23,07,23,13.30
2012,07,23,07,24,13.40
2012,07,23,07,25,13.40
2012,07,23,07,26,13.40
2012,07,23,07,27,13.40
2012,07,23,07,28,13.40
2012,07,23,07,30,13.40
2012,07,23,07,31,13.40
2012,07,23,07,32,13.40
2012,07,23,07,33,13.40
2012,07,23,07,34,13.40
2012,07,23,07,35,13.40
2012,07,23,07,36,13.40
2012,07,23,07,37,13.40
2012,07,23,07,38,13.40
2012,07,23,07,39,13.40
2012,07,23,07,40,13.40
2012,07,23,07,41,13.40
2012,07,23,07,42,13.40
2012,07,23,07,43,13.40
2012,07,23,07,44,13.40
2012,07,23,07,45,13.40
2012,07,23,07,46,13.30
2012,07,23,07,47,13.30
2012,07,23,07,48,13.30
2012,07,23,07,49,13.30
2012,07,23,07,50,13.30
2012,07,23,07,51,13.30
2012,07,23,07,52,13.30
2012,07,23,07,53,13.30
2012,07,23,07,54,13.30
2012,07,23,07,55,13.30
2012,07,23,07,56,13.30
2012,07,23,07,57,13.20
2012,07,23,07,58,13.20
2012,07,23,07,59,13.30
2012,07,23,08,00,13.30
2012,07,23,08,01,13.30
2012,07,23,08,02,13.20
2012,07,23,08,03,13.20
2012,07,23,08,04,13.20
2012,07,23,08,05,13.20
2012,07,23,08,06,13.20
2012,07,23,08,07,13.20
2012,07,23,08,08,13.20
2012,07,23,08,09,13.30
2012,07,23,08,10,13.30
2012,07,23,08,12,13.30
2012,07,23,08,13,13.30
2012,07,23,08,14,13.30
2012,07,23,08,15,13.30
2012,07,23,08,16,13.30
2012,07,23,08,17,13.30
2012,07,23,08,18,13.30
2012,07,23,08,19,13.30
2012,07,23,08,20,13.30
2012,07,23,08,21,13.40
2012,07,23,08,22,13.40
2012,07,23,08,23,13.40
2012,07,23,08,24,13.40
2012,07,23,08,25,13.40
2012,07,23,08,26,13.40
2012,07,23,08,27,13.40
2012,07,23,08,28,13.40
2012,07,23,08,29,13.40
2012,07,23,08,31,13.40
2012,07,23,08,32,13.50
2012,07,23,08,33,13.40
2012,07,23,08,34,13.40
2012,07,23,08,36,13.40
2012,07,23,08,37,13.40
2012,07,23,08,38,13.40
2012,07,23,08,39,13.40
2012,07,23,08,40,13.40
2012,07,23,08,41,13.40
2012,07,23,08,42,13.40
2012,07,23,08,43,13.40
2012,07,23,08,44,13.40
2012,07,23,08,46,13.40
2012,07,23,08,47,13.40
2012,07,23,08,48,13.40
2012,07,23,08,50,13.40
2012,07,23,08,51,13.40
2012,07,23,08,52,13.30
2012,07,23,08,53,13.30
2012,07,23,08,54,13.30
2012,07,23,08,56,13.30
2012,07,23,08,57,13.30
2012,07,23,08,58,13.30
2012,07,23,08,59,13.30
2012,07,23,09,01,13.30
2012,07,23,09,02,13.30
2012,07,23,09,03,13.30
2012,07,23,09,05,13.40
2012,07,23,09,06,13.40
2012,07,23,09,07,13.40
2012,07,23,09,09,13.50
2012,07,23,09,10,13.60
2012,07,23,09,11,13.60
2012,07,23,09,13,13.60
2012,07,23,09,14,13.60
2012,07,23,09,15,13.60
2012,07,23,09,16,13.70
2012,07,23,09,18,13.70
2012,07,23,09,19,13.80
2012,07,23,09,20,13.90
2012,07,23,09,22,13.90
2012,07,23,09,23,14.00
2012,07,23,09,24,14.00
2012,07,23,09,25,14.00
2012,07,23,09,26,14.10
2012,07,23,09,28,14.10
2012,07,23,09,29,14.10
2012,07,23,09,30,14.20
2012,07,23,09,31,14.20
2012,07,23,09,32,14.20
2012,07,23,09,33,14.20
2012,07,23,09,34,14.30
2012,07,23,09,35,14.40
2012,07,23,09,36,14.40
2012,07,23,09,38,14.40
2012,07,23,09,39,14.40
2012,07,23,09,40,14.40
2012,07,23,09,41,14.40
2012,07,23,09,43,14.50
2012,07,23,09,44,14.60
2012,07,23,09,45,14.60
2012,07,23,09,47,14.60
2012,07,23,09,48,14.60
2012,07,23,09,49,14.60
2012,07,23,09,50,14.60
2012,07,23,09,52,14.60
2012,07,23,09,53,14.60
2012,07,23,09,54,14.70
2012,07,23,09,55,14.70
2012,07,23,09,57,14.70
2012,07,23,09,58,14.60
2012,07,23,09,59,14.40
2012,07,23,10,00,14.30
2012,07,23,10,02,14.30
2012,07,23,10,03,14.20
2012,07,23,10,04,14.20
2012,07,23,10,05,14.20
2012,07,23,10,07,14.20
2012,07,23,10,08,14.30
2012,07,23,10,09,14.30
2012,07,23,10,11,14.30
2012,07,23,10,12,14.30
2012,07,23,10,13,14.40
2012,07,23,10,14,14.40
2012,07,23,10,15,14.40
2012,07,23,10,16,14.40
2012,07,23,10,17,14.40
2012,07,23,10,18,14.40
2012,07,23,10,19,14.50
2012,07,23,10,20,14.60
2012,07,23,10,21,14.60
2012,07,23,10,22,14.70
2012,07,23,10,23,14.70
2012,07,23,10,24,14.70
2012,07,23,10,25,14.70
2012,07,23,10,27,14.70
2012,07,23,10,28,14.70
2012,07,23,10,29,14.80
2012,07,23,10,30,14.80
2012,07,23,10,31,14.80
2012,07,23,10,32,14.90
2012,07,23,10,33,14.90
2012,07,23,10,35,15.00
2012,07,23,10,36,15.10
2012,07,23,10,37,15.10
2012,07,23,10,38,15.10
2012,07,23,10,39,15.10
2012,07,23,10,40,15.10
2012,07,23,10,41,15.20
2012,07,23,10,42,15.20
2012,07,23,10,43,15.20
2012,07,23,10,44,15.20
2012,07,23,10,45,15.20
2012,07,23,10,46,15.30
2012,07,23,10,47,15.40
2012,07,23,10,48,15.50
2012,07,23,10,49,15.50
2012,07,23,10,50,15.50
2012,07,23,10,51,15.50
2012,07,23,10,52,15.60
2012,07,23,10,53,15.50
2012,07,23,10,54,15.50
2012,07,23,10,55,15.60
2012,07,23,10,56,15.60
2012,07,23,10,57,15.60
2012,07,23,10,58,15.60
2012,07,23,10,59,15.50
2012,07,23,11,00,15.50
2012,07,23,11,01,15.50
2012,07,23,11,02,15.40
2012,07,23,11,04,15.40
2012,07,23,11,05,15.40
2012,07,23,11,06,15.60
2012,07,23,11,07,15.70
2012,07,23,11,09,15.60
2012,07,23,11,10,15.60
2012,07,23,11,11,15.50
2012,07,23,11,12,15.50
2012,07,23,11,13,15.60
2012,07,23,11,14,15.50
2012,07,23,11,15,15.40
2012,07,23,11,16,15.40
2012,07,23,11,17,15.40
2012,07,23,11,18,15.50
2012,07,23,11,19,15.60
2012,07,23,11,20,15.60
2012,07,23,11,21,15.60
2012,07,23,11,22,15.60
2012,07,23,11,23,15.60
2012,07,23,11,24,15.60
2012,07,23,11,25,15.60
2012,07,23,11,26,15.60
2012,07,23,11,28,15.40
2012,07,23,11,29,15.30
2012,07,23,11,30,15.30
2012,07,23,11,31,15.30
2012,07,23,11,32,15.30
2012,07,23,11,33,15.30
2012,07,23,11,34,15.20
2012,07,23,11,35,15.20
2012,07,23,11,36,15.10
2012,07,23,11,37,15.00
2012,07,23,11,38,14.90
2012,07,23,11,39,14.90
2012,07,23,11,40,14.80
2012,07,23,11,41,14.90
2012,07,23,11,42,14.90
2012,07,23,11,44,15.10
2012,07,23,11,45,15.10
2012,07,23,11,46,15.00
2012,07,23,11,47,15.00
2012,07,23,11,48,14.90
2012,07,23,11,49,14.90
2012,07,23,11,50,15.00
2012,07,23,11,51,15.10
2012,07,23,11,52,15.20
2012,07,23,11,53,15.20
2012,07,23,11,54,15.30
2012,07,23,11,55,15.40
2012,07,23,11,56,15.50
2012,07,23,11,57,15.60
2012,07,23,11,58,15.70
2012,07,23,11,59,15.80
2012,07,23,12,00,15.90
2012,07,23,12,01,15.90
2012,07,23,12,02,16.00
2012,07,23,12,03,16.00
2012,07,23,12,04,15.90
2012,07,23,12,05,15.80
2012,07,23,12,06,15.60
2012,07,23,12,07,15.50
2012,07,23,12,08,15.40
2012,07,23,12,09,15.30
2012,07,23,12,10,15.30
2012,07,23,12,11,15.30
2012,07,23,12,13,15.40
2012,07,23,12,14,15.40
2012,07,23,12,15,15.40
2012,07,23,12,17,15.40
2012,07,23,12,18,15.30
2012,07,23,12,19,15.40
2012,07,23,12,20,15.60
2012,07,23,12,21,15.60
2012,07,23,12,22,15.80
2012,07,23,12,23,15.90
2012,07,23,12,24,15.90
2012,07,23,12,25,15.90
2012,07,23,12,26,15.90
2012,07,23,12,27,15.90
2012,07,23,12,28,16.00
2012,07,23,12,29,16.00
2012,07,23,12,30,16.00
2012,07,23,12,32,16.10
2012,07,23,12,33,16.20
2012,07,23,12,34,16.20
2012,07,23,12,35,16.10
2012,07,23,12,37,16.20
2012,07,23,12,38,16.20
2012,07,23,12,39,16.30
2012,07,23,12,40,16.20
2012,07,23,12,41,16.20
2012,07,23,12,42,16.00
2012,07,23,12,43,15.90
2012,07,23,12,45,15.90
2012,07,23,12,46,15.80
2012,07,23,12,47,15.70
2012,07,23,12,49,15.70
2012,07,23,12,50,15.60
2012,07,23,12,51,15.60
2012,07,23,12,52,15.50
2012,07,23,12,53,15.40
2012,07,23,12,54,15.30
2012,07,23,12,55,15.30
2012,07,23,12,56,15.30
2012,07,23,12,58,15.40
2012,07,23,12,59,15.60
2012,07,23,13,00,15.70
2012,07,23,13,02,15.70
2012,07,23,13,03,15.70
2012,07,23,13,04,15.60
2012,07,23,13,05,15.70
2012,07,23,13,07,15.80
2012,07,23,13,08,16.00
2012,07,23,13,09,16.10
2012,07,23,13,10,16.10
2012,07,23,13,11,16.10
2012,07,23,13,12,16.10
2012,07,23,13,13,16.20
2012,07,23,13,14,16.10
2012,07,23,13,15,16.10
2012,07,23,13,16,16.00
2012,07,23,13,17,15.90
2012,07,23,13,18,15.80
2012,07,23,13,19,15.80
2012,07,23,13,20,15.70
2012,07,23,13,21,15.70
2012,07,23,13,22,15.60
2012,07,23,13,23,15.60
2012,07,23,13,24,15.50
2012,07,23,13,26,15.50
2012,07,23,13,27,15.50
2012,07,23,13,28,15.50
2012,07,23,13,29,15.60
2012,07,23,13,31,15.70
2012,07,23,13,32,15.70
2012,07,23,13,33,15.70
2012,07,23,13,34,15.60
2012,07,23,13,36,15.40
2012,07,23,13,37,15.30
2012,07,23,13,38,15.30
2012,07,23,13,39,15.30
2012,07,23,13,41,15.40
2012,07,23,13,42,15.40
2012,07,23,13,43,15.60
2012,07,23,13,44,15.80
2012,07,23,13,45,15.90
2012,07,23,13,47,16.10
2012,07,23,13,48,16.20
2012,07,23,13,49,16.20
2012,07,23,13,50,16.10
2012,07,23,13,51,16.10
2012,07,23,13,52,16.10
2012,07,23,13,54,16.10
2012,07,23,13,55,16.20
2012,07,23,13,56,16.20
2012,07,23,13,57,16.20
2012,07,23,13,58,16.20
2012,07,23,13,59,16.20
2012,07,23,14,00,16.10
2012,07,23,14,01,16.10
2012,07,23,14,02,16.20
2012,07,23,14,04,16.30
2012,07,23,14,05,16.40
2012,07,23,14,06,16.40
2012,07,23,14,07,16.40
2012,07,23,14,09,16.40
2012,07,23,14,10,16.20
2012,07,23,14,11,16.10
2012,07,23,14,12,16.20
2012,07,23,14,14,16.20
2012,07,23,14,15,16.20
2012,07,23,14,16,16.20
2012,07,23,14,17,16.30
2012,07,23,14,19,16.30
2012,07,23,14,20,16.30
2012,07,23,14,21,16.20
2012,07,23,14,22,16.20
2012,07,23,14,23,16.10
2012,07,23,14,25,16.20
2012,07,23,14,26,16.20
2012,07,23,14,27,16.20
2012,07,23,14,28,16.20
2012,07,23,14,30,16.30
2012,07,23,14,31,16.30
2012,07,23,14,32,16.30
2012,07,23,14,33,16.30
2012,07,23,14,34,16.30
2012,07,23,14,35,16.40
2012,07,23,14,36,16.30
2012,07,23,14,37,16.40
2012,07,23,14,38,16.40
2012,07,23,14,39,16.40
2012,07,23,14,41,16.50
2012,07,23,14,42,16.60
2012,07,23,14,43,16.60
2012,07,23,14,44,16.70
2012,07,23,14,46,16.80
2012,07,23,14,47,16.80
2012,07,23,14,48,16.80
2012,07,23,14,49,16.70
2012,07,23,14,51,16.70
2012,07,23,14,52,16.70
2012,07,23,14,53,16.70
2012,07,23,14,54,16.80
2012,07,23,14,55,16.80
2012,07,23,14,56,16.80
2012,07,23,14,57,16.70
2012,07,23,14,58,16.70
2012,07,23,14,59,16.70
2012,07,23,15,01,16.70
2012,07,23,15,02,16.70
2012,07,23,15,03,16.80
2012,07,23,15,04,16.80
2012,07,23,15,06,16.80
2012,07,23,15,07,16.90
2012,07,23,15,08,16.90
2012,07,23,15,09,16.90
2012,07,23,15,11,16.90
2012,07,23,15,12,16.90
2012,07,23,15,13,16.90
2012,07,23,15,14,17.10
2012,07,23,15,16,17.20
2012,07,23,15,17,17.20
2012,07,23,15,18,17.20
2012,07,23,15,19,17.00
2012,07,23,15,21,16.90
2012,07,23,15,22,16.90
2012,07,23,15,23,17.10
2012,07,23,15,24,17.20
2012,07,23,15,25,17.30
2012,07,23,15,27,17.30
2012,07,23,15,28,17.40
2012,07,23,15,29,17.30
2012,07,23,15,30,17.20
2012,07,23,15,31,17.10
2012,07,23,15,33,17.00
2012,07,23,15,34,16.90
2012,07,23,15,35,16.80
2012,07,23,15,37,16.80
2012,07,23,15,38,16.80
2012,07,23,15,39,16.80
2012,07,23,15,40,16.70
2012,07,23,15,42,16.60
2012,07,23,15,43,16.60
2012,07,23,15,44,16.60
2012,07,23,15,46,16.60
2012,07,23,15,47,16.60
2012,07,23,15,48,16.60
2012,07,23,15,49,16.50
2012,07,23,15,50,16.50
2012,07,23,15,52,16.50
2012,07,23,15,53,16.70
2012,07,23,15,54,16.90
2012,07,23,15,55,16.90
2012,07,23,15,57,16.90
2012,07,23,15,58,16.90
2012,07,23,15,59,17.00
2012,07,23,16,00,17.10
2012,07,23,16,01,17.10
2012,07,23,16,03,17.00
2012,07,23,16,04,16.90
2012,07,23,16,05,16.90
2012,07,23,16,06,17.10
2012,07,23,16,07,17.10
2012,07,23,16,08,17.10
2012,07,23,16,09,17.20
2012,07,23,16,11,17.20
2012,07,23,16,12,17.20
2012,07,23,16,13,17.20
2012,07,23,16,14,17.10
2012,07,23,16,16,17.10
2012,07,23,16,17,17.10
2012,07,23,16,18,17.00
2012,07,23,16,19,16.90
2012,07,23,16,20,16.90
2012,07,23,16,22,16.90
2012,07,23,16,23,16.80
2012,07,23,16,24,16.80
2012,07,23,16,26,16.80
2012,07,23,16,27,16.80
2012,07,23,16,28,16.90
2012,07,23,16,30,17.10
2012,07,23,16,31,17.20
2012,07,23,16,32,17.20
2012,07,23,16,33,17.20
2012,07,23,16,34,17.20
2012,07,23,16,35,17.30
2012,07,23,16,36,17.30
2012,07,23,16,37,17.40
2012,07,23,16,38,17.50
2012,07,23,16,39,17.50
2012,07,23,16,40,17.50
2012,07,23,16,41,17.40
2012,07,23,16,42,17.40
2012,07,23,16,43,17.40
2012,07,23,16,45,17.40
2012,07,23,16,46,17.40
2012,07,23,16,47,17.40
2012,07,23,16,48,17.40
2012,07,23,16,49,17.40
2012,07,23,16,50,17.40
2012,07,23,16,51,17.30
2012,07,23,16,52,17.30
2012,07,23,16,53,17.20
2012,07,23,16,55,17.20
2012,07,23,16,56,17.30
2012,07,23,16,57,17.40
2012,07,23,16,58,17.40
2012,07,23,16,59,17.30
2012,07,23,17,00,17.30
2012,07,23,17,01,17.30
2012,07,23,17,02,17.30
2012,07,23,17,03,17.30
2012,07,23,17,04,17.30
2012,07,23,17,05,17.30
2012,07,23,17,06,17.30
2012,07,23,17,07,17.30
2012,07,23,17,08,17.30
2012,07,23,17,10,17.30
2012,07,23,17,11,17.40
2012,07,23,17,12,17.30
2012,07,23,17,13,17.30
2012,07,23,17,14,17.30
2012,07,23,17,15,17.30
2012,07,23,17,16,17.30
2012,07,23,17,17,17.30
2012,07,23,17,18,17.40
2012,07,23,17,19,17.40
2012,07,23,17,20,17.40
2012,07,23,17,21,17.50
2012,07,23,17,22,17.40
2012,07,23,17,23,17.40
2012,07,23,17,24,17.40
2012,07,23,17,25,17.40
2012,07,23,17,26,17.30
2012,07,23,17,27,17.20
2012,07,23,17,28,17.20
2012,07,23,17,29,17.20
2012,07,23,17,31,17.20
2012,07,23,17,32,17.30
2012,07,23,17,33,17.30
2012,07,23,17,35,17.30
2012,07,23,17,36,17.20
2012,07,23,17,37,17.10
2012,07,23,17,38,17.00
2012,07,23,17,40,16.90
2012,07,23,17,41,16.90
2012,07,23,17,42,16.90
2012,07,23,17,43,16.90
2012,07,23,17,45,16.90
2012,07,23,17,46,16.90
2012,07,23,17,48,16.80
2012,07,23,17,49,17.00
2012,07,23,17,50,17.10
2012,07,23,17,51,17.20
2012,07,23,17,53,17.20
2012,07,23,17,54,17.10
2012,07,23,17,55,17.10
2012,07,23,17,56,17.10
2012,07,23,17,58,17.00
2012,07,23,17,59,16.90
2012,07,23,18,00,16.90
2012,07,23,18,02,16.90
2012,07,23,18,03,16.90
2012,07,23,18,04,16.90
2012,07,23,18,05,16.90
2012,07,23,18,07,16.90
2012,07,23,18,08,16.90
2012,07,23,18,09,16.90
2012,07,23,18,10,16.80
2012,07,23,18,11,16.80
2012,07,23,18,12,16.80
2012,07,23,18,13,16.80
2012,07,23,18,14,16.80
2012,07,23,18,16,16.80
2012,07,23,18,17,16.80
2012,07,23,18,18,16.80
2012,07,23,18,19,16.70
2012,07,23,18,21,16.80
2012,07,23,18,22,16.80
2012,07,23,18,23,16.80
2012,07,23,18,25,16.80
2012,07,23,18,26,16.90
2012,07,23,18,27,16.90
2012,07,23,18,28,16.90
2012,07,23,18,29,16.90
2012,07,23,18,30,16.90
2012,07,23,18,31,16.80
2012,07,23,18,32,16.80
2012,07,23,18,33,16.80
2012,07,23,18,35,16.80
2012,07,23,18,36,16.90
2012,07,23,18,37,16.90
2012,07,23,18,38,16.90
2012,07,23,18,39,16.90
2012,07,23,18,40,16.80
2012,07,23,18,41,16.80
2012,07,23,18,42,16.80
2012,07,23,18,43,16.80
2012,07,23,18,44,16.80
2012,07,23,18,46,16.90
2012,07,23,18,47,16.90
2012,07,23,18,48,16.90
2012,07,23,18,49,16.80
2012,07,23,18,50,16.80
2012,07,23,18,52,16.70
2012,07,23,18,53,16.60
2012,07,23,18,54,16.40
2012,07,23,18,55,16.40
2012,07,23,18,56,16.40
2012,07,23,18,57,16.30
2012,07,23,18,58,16.30
2012,07,23,18,59,16.30
2012,07,23,19,00,16.30
2012,07,23,19,01,16.30
2012,07,23,19,02,16.30
2012,07,23,19,03,16.20
2012,07,23,19,04,16.20
2012,07,23,19,06,16.10
2012,07,23,19,07,16.10
2012,07,23,19,08,16.00
2012,07,23,19,09,16.00
2012,07,23,19,11,16.00
2012,07,23,19,12,15.90
2012,07,23,19,13,15.90
2012,07,23,19,14,15.90
2012,07,23,19,16,15.80
2012,07,23,19,17,15.80
2012,07,23,19,18,15.80
2012,07,23,19,19,15.80
2012,07,23,19,21,15.80
2012,07,23,19,22,15.80
2012,07,23,19,23,15.80
2012,07,23,19,24,15.80
2012,07,23,19,26,15.80
2012,07,23,19,27,15.80
2012,07,23,19,28,15.70
2012,07,23,19,29,15.70
2012,07,23,19,30,15.70
2012,07,23,19,31,15.70
2012,07,23,19,33,15.70
2012,07,23,19,34,15.60
2012,07,23,19,35,15.60
2012,07,23,19,36,15.60
2012,07,23,19,38,15.60
2012,07,23,19,39,15.60
2012,07,23,19,40,15.60
2012,07,23,19,41,15.60
2012,07,23,19,43,15.60
2012,07,23,19,44,15.60
2012,07,23,19,45,15.50
2012,07,23,19,46,15.50
2012,07,23,19,48,15.50
2012,07,23,19,49,15.50
2012,07,23,19,50,15.50
2012,07,23,19,52,15.50
2012,07,23,19,53,15.50
2012,07,23,19,54,15.50